ORBVIEW 2 (SEASTAR)

Last updated on Thu Nov 21 2024 00:02:12 GMT+0000 (Coordinated Universal Time)

1 24883U 97037A 24325.43394688 .00000652 00000+0 24564-3 0 9998 2 24883 98.7973 107.9782 0002613 39.4643 320.6731 14.34917841440445
UTC large
Height (km)
Speed (km/s)
/
Latitude / Longitude
Inclination (degrees)
Orbital Period (minutes)
Azimuth
Elevation
Range (km)
Doppler Factor

Next 0 passes for location: London (51.5072 / 0.1276)

Sorry there are no passes over London.